COSMOS 2251 DEB, 34026

Orbit data source: Space-Track

COSMOS 2251 DEB, 34026 is space debris in LEO originally from a launch on Wed, 16 Jun 1993 UTC launched from the Plesetsk Missile And Space Complex (PKMTR). The debris from Iridium 33, an American commercial communications satellite, has been tracked extensively since its accidental collision with the defunct Russian satellite Cosmos 2251 in 2009. This event, occurring at high speed in low Earth orbit (LEO), generated thousands of pieces of space debris, significantly increasing the risk of further collisions. The Iridium 33 debris cloud has impacted space traffic management and orbital debris mitigation strategies, making it a subject of ongoing study in space situational awareness.

Loading next visibility...
Identifier
34026, 1993-036HM
Orbit
LEO
Country
Flag of CISCIS
Related business
Manufacturer
Unknown
Mission
Spacecraft
Bus & Motor
Unknown
Mass
Unknown
Launch date (UTC)
1993-06-16 (33 years ago)
Launch vehicle
Unknown
Launch site
Plesetsk Missile And Space Complex (PKMTR)
Object type
Payload
Rocket body
Debris
Shape & HBR
Unknown shape, 0.1 m
Radar Cross Section
Small (<0.1 m²)

Expand to show TLE details & history
Last TLE update: 20 hours ago

TLE from 20 hours ago
0 COSMOS 2251 DEB
1 34026U 93036HM  26106.30072730  .00000624  00000-0  52469-3 0  9994
2 34026  73.7644 130.1323 0348307 340.0944  30.3319 13.65549147852324
Epoch: 2026-04-16T07:13Z
TLE epoch observation values (Epoch: 2026-04-16T07:13:02.838Z)
Latitude
11.97846°
Longitude
-179.05662°
Altitude
797.438 km
Speed
7.566 km/s
True Right ascension
08h 54m 37s
True Declination
11° 54' 33"
Sunlit
Object was in daylight at epoch
Visualization orbit readout
Latitude
Unknown
Longitude
Unknown
Altitude
Unknown
Speed
Unknown
Apparent Right ascension
Unknown
Apparent Declination
Unknown
Sunlit
N/A
Visualization observer readout
Local Sidereal Time
09:38:55
Azimuth
Unknown
Elevation
Unknown
Doppler factor
Unknown
Orbital elements
Apogee altitude
1,270.764 km
Perigee altitude
755.865 km
Semi-major axis
7,391.452 km
Eccentricity
0.03483
Inclination
73.7644°
RAAN
130.1323°
Arg. of periapsis
340.0944°
True anomaly
32.42565°
Mean anomaly
30.3319°
Eccentric anomaly
31.37079°
Mean motion
3.41545 °/min
Orbital period
105.4 mins
BSTAR
0.00052469
Loading maneuver chart data...
Computing Atmospheric mass density...

Documentation

Showing up to 5 results
|